Regional Weather Roundup
Issued by NWS

Home | Current Version | Previous Version | Text Only | Print | Product List | Glossary On
Versions: 1 2 3 4 5 6 7 8 9 10 11 12 13 14 15 16 17 18 19 20 21 22 23 24 25 26 27 28 29 30 31 32 33 34 35 36 37 38 39 40 41 42 43 44 45 46 47 48 49 50
000
ASUS43 KLSX 271510
RWRMO

WEATHER SUMMARY FOR MISSOURI
NATIONAL WEATHER SERVICE SPRINGFIELD MO
1000 AM CDT SAT MAY 27 2017

NOTE: "FAIR" INDICATES FEW OR NO CLOUDS BELOW 12,000 FEET WITH NO
       SIGNIFICANT WEATHER AND/OR OBSTRUCTIONS TO VISIBILITY.
       CURRENT SKY AND/OR WEATHER CONDITIONS ARE NOT AVAILABLE FOR
       CHILLICOTHE AND FARMINGTON.

MOZ001>031-035>038-043-044-053-054-271600-
...NORTHERN AND WESTERN MISSOURI...

CITY           SKY/WX    TMP DP  RH WIND       PRES   REMARKS
KANSAS CTY INT CLOUDY    63  59  87 E9        29.87F
KANSAS C DTWN  CLOUDY    68  59  73 E5        29.88F
LEE`S SUMMIT   PTSUNNY   71  64  78 NE13      29.90F
ST JOSEPH      LGT RAIN  62  61  96 CALM      29.85F
CHILLICOTHE      N/A     71  65  81 W6        29.96R
KIRKSVILLE     CLOUDY    76  61  59 CALM      29.92R

$$
MOZ066>068-077>081-088>096-101>105-271600-
...SOUTHWEST MISSOURI...

CITY           SKY/WX    TMP DP  RH WIND       PRES   REMARKS
SPRINGFIELD    PTSUNNY   77  71  82 S9        29.87R
JOPLIN         CLOUDY    79  75  87 SW6       29.85R
BRANSON        MOSUNNY   77  72  83 SE6       29.88S

$$
MOZ032>034-039>042-045>050-055>058-069>072-271600-
...CENTRAL MISSOURI...

CITY           SKY/WX    TMP DP  RH WIND       PRES   REMARKS
COLUMBIA       PTSUNNY   77  63  61 E6        29.89R
JEFFERSON CITY MOSUNNY   80  64  58 SE7       29.87R
ROLLA          PTSUNNY   76  70  82 E12       29.87S
SEDALIA        PTSUNNY   78  72  81 NE10      29.90R
WHITEMAN AFB   PTSUNNY   76  76  99 E9        29.86F
WARRENSBURG    MOSUNNY   77  68  73 NE9       29.87F
OSAGE BEACH    CLOUDY    76  71  85 SE6       29.88R

$$
MOZ051-052-059>065-271600-
...EAST CENTRAL MISSOURI...

CITY           SKY/WX    TMP DP  RH WIND       PRES   REMARKS
ST LOUIS INTL  MOSUNNY   78  63  59 E6        29.88S
SPIRIT OF STL  MOSUNNY   77  65  66 E7        29.86F
ST CHARLES     SUNNY     75  66  73 NE9       29.87F

$$
MOZ072>076-082>087-097>100-106>115-271600-
...SOUTH CENTRAL AND SOUTHEAST MISSOURI...

CITY           SKY/WX    TMP DP  RH WIND       PRES   REMARKS
CAPE GIRARDEAU CLOUDY    77  70  79 SE6       29.87S
FARMINGTON     CLOUDY    75  70  83 SE7       29.89F
POPLAR BLUFF   MOSUNNY   77  70  79 SW6       29.87S
WEST PLAINS    SUNNY     77  67  71 SW5       29.91R

$$




USA.gov is the U.S. government's official web portal to all federal, state and local government web resources and services.